SCP
0 0 0 0 0 0 0 0 0 0 0 0 0 0 0 0 0 0 0 0 0 0 0 0 0 0 0 0 0 -0 -0 -0 -0 0 0 0 0 0 0 0 0 0 0 0 0
0 0 0 0 0 0 0 0 0 0 0 0 0 0 0 0 0 0 0 0 0 0 0 0 0 0 0 0 0 -0 -0 -0 0 0 0 0 0 0 0 0 0 0 0 0 0
0 0 0 0 0 0 0 0 0 0 0 0 0 0 0 0 0 0 0 0 0 0 0 0 0 0 0 0 0 0 0 -0 0 0 0 0 0 0 0 0 0 0 0 0 0
0 0 0 0 0 0 0 0 0 0 0 0 0 0 0 0 0 0 0 0 0 0 0 0 0 0 0 0 0 0 0 0 0 0 0 0 0 0 0 0 -0 0 0 0 0
0 0 0 0 0 0 0 0 0 0 0 0 0 0 0 0 0 0 0 0 0 0 0 0 0 0 0 0 0 0 0 0 0 0 0 0 0 -0 -0 -0 0 0 0 0 0
0 0 0 0 0 0 0 0 0 0 0 0 0 0 0 0 0 0 0 0 0 0 0 0 0 0 0 0 0 0 0 0 0 0 0 0 0 0 0 0 0 0 0 0 0
0 0 0 0 0 0 0 0 0 0 0 0 0 0 0 0 0 0 0 0 0 0 0 0 0 0 0 0 0 0 0 0 0 0 0 0 0 0 0 0 0 0 0 0 0
0 0 0 0 0 0 0 0 0 0 0 0 0 0 0 0 0 0 0 0 0 0 0 0 0 0 0 0 0 0 0 0 0 0 0 0 0 0 0 0 0 0 0 0 0
0 0 0 0 0 0 0 0 0 0 0 0 0 0 0 0 0 0 0 0 0 0 0 0 0 0 0 0 0 0 0 0 0 0 0 0 0 0 0 0 0 0 0 0 0
0 0 0 0 0 0 0 0 0 0 0 0 0 0 0 0 0 0 0 0 0 0 0 0 0 0 0 0 0 0 0 0 0 0 0 0 0 0 0 0 0 0 0 0 0
0 0 0 0 0 0 0 0 0 0 0 0 0 0 0 0 0 0 0 0 0 0 0 0 0 0 0 0 0 0 0 0 0 0 0 0 0 -0 0 0 0 0 0 0 0
0 0 0 0 0 0 0 0 0 0 0 0 0 0 0 0 0 0 0 0 0 0 0 0 0 0 0 0 0 0 0 0 0 0 0 0 0 -0 0 0 0 0 0 0 0
0 0 0 0 0 0 0 0 0 0 0 0 0 0 0 0 0 0 0 0 0 0 0 0 0 0 0 0 0 0 0 0 0 0 0 0 0 0 0 0 0 0 0 0 0
0 0 0 0 0 0 0 0 0 0 0 0 0 0 0 0 0 0 0 0 0 0 0 0 0 0 0 0 0 0 0 0 0 0 0 0 0 0 0 0 0 0 0 0 0
0 0 0 0 0 0 0 0 0 0 0 0 0 0 0 0 0 0 0 0 0 0 0 0 0 0 0 0 0 0 0 0 0 0 0 0 0 0 0 0 0 0 0 0 0
0 0 0 0 0 0 0 0 0 0 0 0 0 0 0 0 0 0 0 0 0 0 0 0 0 0 0 0 0 0 0 0 0 0 0 0 0 0 0 0 0 0 0 0 0
0 0 0 0 0 0 0 0 0 0 0 0 0 0 0 0 0 0 0 0 0 0 0 0 0 0 0 0 0 0 0 0 0 0 0 0 0 0 0 0 0 0 0 0 0
0 0 0 0 0 0 0 0 0 0 0 0 0 0 0 0 0 0 0 0 0 0 0 0 0 0 0 0 0 0 0 0 0 0 0 0 0 0 0 0 0 0 0 0 0
0 0 0 0 0 0 0 0 0 0 0 0 0 0 0 0 0 0 0 0 0 0 0 0 0 0 0 0 0 0 0 0 0 0 0 0 0 0 0 0 0 0 0 0 0
0 0 0 0 0 0 0 0 0 0 0 0 0 0 0 0 0 0 0 0 0 0 0 0 0 0 0 0 0 0 0 0 0 0 0 0 0 0 0 0 0 0 0 0 0
0 0 0 0 0 0 0 0 0 0 0 0 0 0 0 0 0 0 0 0 0 0 0 0 0 0 0 0 0 0 0 0 0 0 0 0 0 0 0 0 0 0 0 0 0
0 0 0 0 0 0 0 0 0 0 0 0 0 0 0 0 0 0 0 0 0 0 0 0 0 0 0 0 0 0 0 0 0 0 0 0 0 0 0 0 0 0 0 0 0
0 0 0 1 0 0 0 0 0 0 0 0 0 0 0 0 0 0 0 0 0 0 0 0 0 0 0 0 0 0 0 0 0 0 0 0 0 0 0 0 0 0 0 0 0
0 0 0 0 0 0 0 0 0 0 0 0 0 0 0 0 0 0 0 0 0 0 0 0 0 0 0 0 0 0 0 0 0 0 0 0 0 0 0 0 0 0 -0 0 0
0 0 0 0 0 0 0 0 0 0 0 0 0 0 0 0 0 0 0 0 0 0 0 0 0 0 0 0 0 0 0 0 0 0 0 0 0 0 0 0 -0 -0 -0 -0 -0
0 0 0 0 0 0 0 0 0 0 0 0 0 0 0 0 0 0 0 0 0 0 0 0 0 0 0 0 0 0 0 0 0 0 0 0 0 0 0 0 0 -0 -0 -0 -0
0 0 0 0 0 0 0 0 0 0 0 0 0 0 0 0 0 0 0 0 0 0 0 0 0 0 0 0 0 0 0 0 0 0 0 0 0 0 0 0 0 0 0 -0 0
Wind_Speed_500mb
23 23 21 19 17 15 15 13 12 12 13 13 14 14 14 15 17 19 20 20 23 14 15 19 17 15 16 13 9 8 12 15 17 9 1 3 6 3 10 18 13 15 18 8 15
25 25 25 22 20 19 17 15 13 12 12 11 12 13 12 13 18 26 21 20 18 21 16 19 20 21 14 12 11 16 16 15 10 11 11 7 13 17 12 22 28 29 28 24 23
21 27 28 25 23 22 20 18 16 13 12 12 10 11 10 10 12 14 22 24 22 23 21 18 18 19 16 12 17 11 17 17 9 11 14 16 22 20 17 20 28 28 16 22 22
26 23 28 27 26 24 23 21 18 16 14 13 11 11 8 6 5 6 11 27 23 22 22 21 22 16 14 13 14 12 20 22 11 8 9 14 20 23 37 46 36 19 20 17 24
36 30 26 27 28 26 25 24 21 19 17 14 12 10 8 9 13 9 8 19 25 24 26 23 26 19 15 10 10 18 21 18 20 20 21 27 38 37 57 51 43 40 33 27 24
48 38 33 27 26 26 26 25 24 22 20 17 14 11 9 13 11 12 10 15 24 23 27 26 16 14 7 9 15 5 14 28 22 20 16 15 27 17 20 7 10 16 26 27 27
50 50 38 33 28 25 25 25 25 24 22 19 16 12 16 17 13 16 17 15 17 22 19 23 13 14 9 6 8 9 17 22 20 11 8 8 24 28 34 25 21 21 19 18 19
57 49 53 37 32 29 25 24 23 23 23 20 17 12 13 18 24 20 20 18 18 20 15 23 18 10 5 3 6 8 5 8 8 5 4 1 17 6 2 13 18 14 18 20 19
59 55 54 42 39 34 28 23 22 22 21 19 15 12 10 16 24 28 24 13 20 18 19 19 12 7 6 9 9 12 9 13 5 6 4 12 18 4 6 16 32 38 37 35 30
48 62 62 56 52 41 33 23 21 20 20 16 19 8 21 14 25 32 29 26 10 19 13 11 11 11 13 17 11 12 11 9 12 8 10 20 44 37 44 38 43 34 31 23 21
40 37 63 51 51 45 42 21 12 12 31 23 12 6 11 20 26 29 37 35 18 18 16 15 15 22 27 31 15 7 10 17 8 7 7 22 36 39 42 44 38 18 6 5 9
50 40 51 66 52 51 50 38 18 4 13 53 20 26 15 26 11 28 41 23 22 19 15 9 24 24 2 16 15 16 18 22 12 2 6 21 38 49 33 20 8 7 9 11 15
55 43 37 52 56 52 63 62 29 19 9 12 41 22 22 34 10 40 46 21 21 25 31 20 3 1 17 15 18 19 22 18 11 9 21 22 24 20 5 6 9 9 8 11 19
69 52 34 34 54 68 76 66 48 21 6 17 17 20 35 22 12 29 43 13 11 30 21 21 11 10 16 21 21 19 7 15 10 6 8 3 11 25 4 10 13 16 16 15 20
65 70 43 50 32 63 62 57 56 28 9 15 11 15 25 28 30 17 33 10 17 19 13 11 18 20 15 7 22 3 5 8 5 7 10 11 9 10 6 11 9 13 19 16 19
46 60 55 52 49 43 69 53 43 9 14 12 12 19 25 21 9 16 19 7 10 10 3 6 3 6 1 9 3 18 9 7 3 1 6 6 8 9 9 8 12 7 15 16 19
51 49 65 52 42 43 64 56 6 19 3 14 13 18 34 19 16 20 30 26 17 12 12 6 7 4 6 12 9 9 12 3 2 3 7 5 8 20 17 12 11 5 13 14 17
47 49 54 76 49 51 66 13 13 12 14 6 15 26 22 23 17 20 28 24 34 11 11 16 10 21 17 4 8 22 7 6 8 6 4 3 11 2 12 11 5 2 6 13 15
48 53 56 68 58 76 63 20 18 13 14 27 30 25 19 19 12 22 31 19 22 24 12 13 11 3 1 2 1 11 12 5 9 3 3 10 12 8 17 21 19 10 7 6 12
50 49 63 67 69 78 27 56 16 12 17 30 18 21 25 34 22 30 31 25 17 33 5 11 7 3 4 2 4 6 2 7 2 7 10 7 11 10 21 24 23 19 18 11 6
44 19 32 59 60 41 16 12 7 27 18 19 9 15 22 24 31 26 27 10 26 33 17 8 3 4 4 14 17 9 7 8 4 4 5 4 6 16 27 23 24 19 22 21 8
48 12 25 72 22 5 17 15 15 23 13 10 6 15 26 28 30 24 25 4 28 33 23 10 7 8 7 1 5 5 11 18 7 9 3 4 3 17 21 17 21 26 19 20 16
40 32 31 85 29 19 16 14 22 17 17 14 12 4 6 18 10 17 17 3 20 20 32 19 10 9 4 2 5 12 19 14 8 1 12 10 7 7 17 2 4 13 19 21 21
30 15 20 59 69 45 29 27 21 33 20 24 16 19 14 10 7 15 19 7 9 12 3 16 2 5 15 7 11 11 19 28 17 7 11 15 1 12 11 12 5 12 18 18 19
31 12 28 27 32 46 46 33 42 22 30 41 20 33 26 10 3 9 13 12 9 6 5 12 9 4 5 7 4 7 8 20 22 27 18 9 19 16 10 13 11 13 15 16 17
13 13 23 10 51 40 43 47 55 55 39 47 34 38 33 20 20 20 21 16 12 14 14 9 4 4 3 3 6 2 6 13 10 8 13 10 15 23 37 19 22 23 21 19 22
35 30 45 29 35 34 37 52 55 47 34 49 48 37 32 24 10 23 16 25 25 24 23 21 11 7 7 4 1 12 18 20 12 12 16 21 25 14 13 6 13 12 13 17 23
Wind_Direction_500mb
255 257 253 255 252 251 257 261 266 265 271 273 276 272 269 267 260 256 252 228 226 213 191 190 183 182 176 203 206 237 248 256 254 254 324 115 270 192 285 270 234 227 251 256 226
256 251 251 251 250 250 250 253 252 261 269 273 281 279 273 272 273 257 238 226 210 200 181 175 181 174 184 200 198 228 248 272 357 325 303 312 284 296 271 261 257 254 254 246 247
265 254 248 246 248 249 249 250 250 248 256 271 278 283 279 283 294 246 224 214 201 193 190 181 178 175 203 200 203 199 252 8 289 299 302 291 285 265 269 269 267 273 273 225 228
264 259 250 244 242 243 250 248 249 251 250 256 266 279 274 255 267 259 222 198 195 188 184 179 175 183 212 208 207 258 243 279 296 320 296 283 302 268 257 259 281 278 277 240 224
255 256 253 244 241 239 242 248 248 248 251 252 258 263 269 254 256 253 195 188 190 188 182 180 187 200 205 209 210 243 268 283 270 277 277 280 270 275 275 273 269 270 262 245 238
256 244 249 247 243 239 240 243 247 248 248 248 253 253 244 244 245 218 188 181 189 190 190 185 200 215 213 225 223 1 289 280 283 280 275 276 281 301 274 266 266 247 246 248 237
250 251 240 242 243 240 241 241 242 248 249 250 248 245 244 247 239 203 189 177 185 187 199 197 189 186 186 192 234 283 291 280 253 274 268 325 273 233 267 262 273 250 247 246 246
237 246 253 239 241 243 239 242 243 241 246 249 247 239 252 237 223 202 191 197 193 190 182 197 190 183 233 191 216 240 240 267 125 182 165 185 273 317 222 253 267 258 250 243 249
236 236 244 244 240 239 233 237 242 240 240 242 240 213 244 222 204 198 183 180 176 178 177 169 160 201 170 227 239 212 256 220 206 189 262 222 292 299 202 256 270 282 280 269 258
244 243 232 238 230 232 232 227 236 240 229 230 231 235 231 207 194 189 178 161 146 154 142 170 189 219 210 202 229 209 230 204 256 121 232 269 273 274 281 283 280 283 282 271 253
236 243 236 238 225 225 232 207 200 227 211 204 219 229 157 179 168 181 174 159 138 188 196 194 213 212 213 222 259 276 259 261 246 120 294 273 285 290 284 275 278 277 204 173 156
233 225 232 230 227 220 222 199 209 179 257 229 222 222 196 164 144 177 173 164 172 194 182 184 233 236 222 218 232 245 257 267 274 196 250 289 288 287 286 273 232 186 172 160 155
228 234 223 224 224 215 216 217 214 204 254 216 214 206 198 186 197 183 176 179 187 194 198 218 26 351 190 186 207 229 245 265 276 313 241 285 262 272 181 212 194 202 169 152 165
231 229 227 222 213 214 215 216 223 183 251 207 202 209 197 169 208 167 178 183 190 203 193 234 164 161 188 210 212 239 248 247 264 274 286 294 294 298 261 262 179 179 181 160 160
235 229 222 217 203 214 215 217 219 173 255 134 146 187 168 177 135 174 179 190 179 163 178 184 184 191 195 191 191 80 136 175 207 239 309 205 255 256 213 293 49 162 162 156 165
242 229 220 213 225 206 214 213 182 153 232 160 148 168 158 180 138 130 167 151 106 138 168 72 52 217 114 99 79 139 122 110 107 272 247 215 251 263 348 29 72 111 156 154 160
247 224 227 216 221 204 204 169 176 206 317 178 179 174 177 169 154 169 179 180 166 157 189 150 170 149 180 117 116 207 180 30 258 176 248 128 207 265 349 29 348 28 157 161 167
241 221 233 221 207 205 179 165 212 145 190 142 153 166 179 156 178 179 172 194 219 220 146 170 213 180 170 244 193 194 227 204 232 200 106 125 232 221 352 316 301 218 88 158 169
225 221 230 223 209 185 196 199 215 181 165 151 144 155 182 185 170 171 193 206 198 195 165 181 194 109 55 341 251 173 213 41 97 74 278 215 240 141 50 53 61 67 80 158 181
211 221 234 217 209 189 201 220 180 175 144 164 166 175 179 183 168 190 183 205 193 193 234 181 125 353 73 262 199 260 175 138 201 201 226 186 262 227 74 71 71 57 49 47 192
190 209 242 200 205 203 204 208 203 189 163 163 160 166 209 177 189 187 196 162 195 185 185 128 131 105 174 210 186 160 192 220 223 238 247 216 184 119 114 90 76 63 52 47 46
177 205 202 181 194 188 183 170 167 152 160 157 138 154 189 187 188 181 203 286 175 155 181 157 94 152 187 87 310 312 229 197 195 193 247 2 112 156 131 91 55 48 32 25 22
176 197 197 185 194 207 192 167 175 156 172 167 149 180 130 167 166 176 174 75 165 171 167 173 176 128 117 196 198 222 206 227 232 66 193 188 197 198 172 204 344 8 11 347 354
167 177 172 200 210 213 204 193 189 171 169 171 154 160 141 138 278 162 142 142 178 177 166 164 104 192 196 109 123 189 210 204 194 192 192 228 51 198 231 240 329 18 349 359 353
194 198 178 190 203 207 196 193 199 173 207 194 184 182 174 134 67 154 125 130 151 181 155 193 189 129 66 67 128 193 172 193 203 211 210 199 220 235 267 320 147 21 14 10 351
206 161 159 155 204 207 197 205 202 201 182 197 202 194 184 158 188 185 153 168 171 168 182 184 136 127 125 46 28 308 181 192 208 236 273 285 271 261 287 307 350 20 13 5 348
216 212 184 187 184 188 203 197 203 190 195 206 200 188 199 198 182 158 173 166 160 163 175 174 144 147 191 100 209 271 196 188 189 206 201 226 246 232 273 292 330 6 8 2 358
Wind_Speed_850mb
23 23 21 19 17 15 15 13 12 12 13 13 14 14 14 15 17 19 20 20 23 14 15 19 17 15 16 13 9 8 12 15 17 9 1 3 6 3 10 18 13 15 18 8 15
25 25 25 22 20 19 17 15 13 12 12 11 12 13 12 13 18 26 21 20 18 21 16 19 20 21 14 12 11 16 16 15 10 11 11 7 13 17 12 22 28 29 28 24 23
21 27 28 25 23 22 20 18 16 13 12 12 10 11 10 10 12 14 22 24 22 23 21 18 18 19 16 12 17 11 17 17 9 11 14 16 22 20 17 20 28 28 16 22 22
26 23 28 27 26 24 23 21 18 16 14 13 11 11 8 6 5 6 11 27 23 22 22 21 22 16 14 13 14 12 20 22 11 8 9 14 20 23 37 46 36 19 20 17 24
36 30 26 27 28 26 25 24 21 19 17 14 12 10 8 9 13 9 8 19 25 24 26 23 26 19 15 10 10 18 21 18 20 20 21 27 38 37 57 51 43 40 33 27 24
48 38 33 27 26 26 26 25 24 22 20 17 14 11 9 13 11 12 10 15 24 23 27 26 16 14 7 9 15 5 14 28 22 20 16 15 27 17 20 7 10 16 26 27 27
50 50 38 33 28 25 25 25 25 24 22 19 16 12 16 17 13 16 17 15 17 22 19 23 13 14 9 6 8 9 17 22 20 11 8 8 24 28 34 25 21 21 19 18 19
57 49 53 37 32 29 25 24 23 23 23 20 17 12 13 18 24 20 20 18 18 20 15 23 18 10 5 3 6 8 5 8 8 5 4 1 17 6 2 13 18 14 18 20 19
59 55 54 42 39 34 28 23 22 22 21 19 15 12 10 16 24 28 24 13 20 18 19 19 12 7 6 9 9 12 9 13 5 6 4 12 18 4 6 16 32 38 37 35 30
48 62 62 56 52 41 33 23 21 20 20 16 19 8 21 14 25 32 29 26 10 19 13 11 11 11 13 17 11 12 11 9 12 8 10 20 44 37 44 38 43 34 31 23 21
40 37 63 51 51 45 42 21 12 12 31 23 12 6 11 20 26 29 37 35 18 18 16 15 15 22 27 31 15 7 10 17 8 7 7 22 36 39 42 44 38 18 6 5 9
50 40 51 66 52 51 50 38 18 4 13 53 20 26 15 26 11 28 41 23 22 19 15 9 24 24 2 16 15 16 18 22 12 2 6 21 38 49 33 20 8 7 9 11 15
55 43 37 52 56 52 63 62 29 19 9 12 41 22 22 34 10 40 46 21 21 25 31 20 3 1 17 15 18 19 22 18 11 9 21 22 24 20 5 6 9 9 8 11 19
69 52 34 34 54 68 76 66 48 21 6 17 17 20 35 22 12 29 43 13 11 30 21 21 11 10 16 21 21 19 7 15 10 6 8 3 11 25 4 10 13 16 16 15 20
65 70 43 50 32 63 62 57 56 28 9 15 11 15 25 28 30 17 33 10 17 19 13 11 18 20 15 7 22 3 5 8 5 7 10 11 9 10 6 11 9 13 19 16 19
46 60 55 52 49 43 69 53 43 9 14 12 12 19 25 21 9 16 19 7 10 10 3 6 3 6 1 9 3 18 9 7 3 1 6 6 8 9 9 8 12 7 15 16 19
51 49 65 52 42 43 64 56 6 19 3 14 13 18 34 19 16 20 30 26 17 12 12 6 7 4 6 12 9 9 12 3 2 3 7 5 8 20 17 12 11 5 13 14 17
47 49 54 76 49 51 66 13 13 12 14 6 15 26 22 23 17 20 28 24 34 11 11 16 10 21 17 4 8 22 7 6 8 6 4 3 11 2 12 11 5 2 6 13 15
48 53 56 68 58 76 63 20 18 13 14 27 30 25 19 19 12 22 31 19 22 24 12 13 11 3 1 2 1 11 12 5 9 3 3 10 12 8 17 21 19 10 7 6 12
50 49 63 67 69 78 27 56 16 12 17 30 18 21 25 34 22 30 31 25 17 33 5 11 7 3 4 2 4 6 2 7 2 7 10 7 11 10 21 24 23 19 18 11 6
44 19 32 59 60 41 16 12 7 27 18 19 9 15 22 24 31 26 27 10 26 33 17 8 3 4 4 14 17 9 7 8 4 4 5 4 6 16 27 23 24 19 22 21 8
48 12 25 72 22 5 17 15 15 23 13 10 6 15 26 28 30 24 25 4 28 33 23 10 7 8 7 1 5 5 11 18 7 9 3 4 3 17 21 17 21 26 19 20 16
40 32 31 85 29 19 16 14 22 17 17 14 12 4 6 18 10 17 17 3 20 20 32 19 10 9 4 2 5 12 19 14 8 1 12 10 7 7 17 2 4 13 19 21 21
30 15 20 59 69 45 29 27 21 33 20 24 16 19 14 10 7 15 19 7 9 12 3 16 2 5 15 7 11 11 19 28 17 7 11 15 1 12 11 12 5 12 18 18 19
31 12 28 27 32 46 46 33 42 22 30 41 20 33 26 10 3 9 13 12 9 6 5 12 9 4 5 7 4 7 8 20 22 27 18 9 19 16 10 13 11 13 15 16 17
13 13 23 10 51 40 43 47 55 55 39 47 34 38 33 20 20 20 21 16 12 14 14 9 4 4 3 3 6 2 6 13 10 8 13 10 15 23 37 19 22 23 21 19 22
35 30 45 29 35 34 37 52 55 47 34 49 48 37 32 24 10 23 16 25 25 24 23 21 11 7 7 4 1 12 18 20 12 12 16 21 25 14 13 6 13 12 13 17 23
Wind_Direction_850mb
255 257 253 255 252 251 257 261 266 265 271 273 276 272 269 267 260 256 252 228 226 213 191 190 183 182 176 203 206 237 248 256 254 254 324 115 270 192 285 270 234 227 251 256 226
256 251 251 251 250 250 250 253 252 261 269 273 281 279 273 272 273 257 238 226 210 200 181 175 181 174 184 200 198 228 248 272 357 325 303 312 284 296 271 261 257 254 254 246 247
265 254 248 246 248 249 249 250 250 248 256 271 278 283 279 283 294 246 224 214 201 193 190 181 178 175 203 200 203 199 252 8 289 299 302 291 285 265 269 269 267 273 273 225 228
264 259 250 244 242 243 250 248 249 251 250 256 266 279 274 255 267 259 222 198 195 188 184 179 175 183 212 208 207 258 243 279 296 320 296 283 302 268 257 259 281 278 277 240 224
255 256 253 244 241 239 242 248 248 248 251 252 258 263 269 254 256 253 195 188 190 188 182 180 187 200 205 209 210 243 268 283 270 277 277 280 270 275 275 273 269 270 262 245 238
256 244 249 247 243 239 240 243 247 248 248 248 253 253 244 244 245 218 188 181 189 190 190 185 200 215 213 225 223 1 289 280 283 280 275 276 281 301 274 266 266 247 246 248 237
250 251 240 242 243 240 241 241 242 248 249 250 248 245 244 247 239 203 189 177 185 187 199 197 189 186 186 192 234 283 291 280 253 274 268 325 273 233 267 262 273 250 247 246 246
237 246 253 239 241 243 239 242 243 241 246 249 247 239 252 237 223 202 191 197 193 190 182 197 190 183 233 191 216 240 240 267 125 182 165 185 273 317 222 253 267 258 250 243 249
236 236 244 244 240 239 233 237 242 240 240 242 240 213 244 222 204 198 183 180 176 178 177 169 160 201 170 227 239 212 256 220 206 189 262 222 292 299 202 256 270 282 280 269 258
244 243 232 238 230 232 232 227 236 240 229 230 231 235 231 207 194 189 178 161 146 154 142 170 189 219 210 202 229 209 230 204 256 121 232 269 273 274 281 283 280 283 282 271 253
236 243 236 238 225 225 232 207 200 227 211 204 219 229 157 179 168 181 174 159 138 188 196 194 213 212 213 222 259 276 259 261 246 120 294 273 285 290 284 275 278 277 204 173 156
233 225 232 230 227 220 222 199 209 179 257 229 222 222 196 164 144 177 173 164 172 194 182 184 233 236 222 218 232 245 257 267 274 196 250 289 288 287 286 273 232 186 172 160 155
228 234 223 224 224 215 216 217 214 204 254 216 214 206 198 186 197 183 176 179 187 194 198 218 26 351 190 186 207 229 245 265 276 313 241 285 262 272 181 212 194 202 169 152 165
231 229 227 222 213 214 215 216 223 183 251 207 202 209 197 169 208 167 178 183 190 203 193 234 164 161 188 210 212 239 248 247 264 274 286 294 294 298 261 262 179 179 181 160 160
235 229 222 217 203 214 215 217 219 173 255 134 146 187 168 177 135 174 179 190 179 163 178 184 184 191 195 191 191 80 136 175 207 239 309 205 255 256 213 293 49 162 162 156 165
242 229 220 213 225 206 214 213 182 153 232 160 148 168 158 180 138 130 167 151 106 138 168 72 52 217 114 99 79 139 122 110 107 272 247 215 251 263 348 29 72 111 156 154 160
247 224 227 216 221 204 204 169 176 206 317 178 179 174 177 169 154 169 179 180 166 157 189 150 170 149 180 117 116 207 180 30 258 176 248 128 207 265 349 29 348 28 157 161 167
241 221 233 221 207 205 179 165 212 145 190 142 153 166 179 156 178 179 172 194 219 220 146 170 213 180 170 244 193 194 227 204 232 200 106 125 232 221 352 316 301 218 88 158 169
225 221 230 223 209 185 196 199 215 181 165 151 144 155 182 185 170 171 193 206 198 195 165 181 194 109 55 341 251 173 213 41 97 74 278 215 240 141 50 53 61 67 80 158 181
211 221 234 217 209 189 201 220 180 175 144 164 166 175 179 183 168 190 183 205 193 193 234 181 125 353 73 262 199 260 175 138 201 201 226 186 262 227 74 71 71 57 49 47 192
190 209 242 200 205 203 204 208 203 189 163 163 160 166 209 177 189 187 196 162 195 185 185 128 131 105 174 210 186 160 192 220 223 238 247 216 184 119 114 90 76 63 52 47 46
177 205 202 181 194 188 183 170 167 152 160 157 138 154 189 187 188 181 203 286 175 155 181 157 94 152 187 87 310 312 229 197 195 193 247 2 112 156 131 91 55 48 32 25 22
176 197 197 185 194 207 192 167 175 156 172 167 149 180 130 167 166 176 174 75 165 171 167 173 176 128 117 196 198 222 206 227 232 66 193 188 197 198 172 204 344 8 11 347 354
167 177 172 200 210 213 204 193 189 171 169 171 154 160 141 138 278 162 142 142 178 177 166 164 104 192 196 109 123 189 210 204 194 192 192 228 51 198 231 240 329 18 349 359 353
194 198 178 190 203 207 196 193 199 173 207 194 184 182 174 134 67 154 125 130 151 181 155 193 189 129 66 67 128 193 172 193 203 211 210 199 220 235 267 320 147 21 14 10 351
206 161 159 155 204 207 197 205 202 201 182 197 202 194 184 158 188 185 153 168 171 168 182 184 136 127 125 46 28 308 181 192 208 236 273 285 271 261 287 307 350 20 13 5 348
216 212 184 187 184 188 203 197 203 190 195 206 200 188 199 198 182 158 173 166 160 163 175 174 144 147 191 100 209 271 196 188 189 206 201 226 246 232 273 292 330 6 8 2 358